This is the latest recevied weather packets stored in our database for station/object WP3OF-1. If no packets are shown the sender has not sent any weather packets the latest 10 day(s).
| Time | Temp. | Humidity | Pressure | Rain* | Wind** | Luminosity | Snow |
|---|---|---|---|---|---|---|---|
| 1778007891 | 28.89° C | 75% | 1017.3 hPa | 0 mm | - | - | - |
| 1778007587 | 28.89° C | 75% | 1017.3 hPa | 0 mm | - | - | - |
| 1778007285 | 29.44° C | 72% | 1017.3 hPa | 0 mm | - | - | - |
| 1778006981 | 29.44° C | 69% | 1017.2 hPa | 0 mm | - | - | - |
| 1778006678 | 28.89° C | 70% | 1017.2 hPa | 0 mm | - | - | - |
| 1778006374 | 29.44° C | 71% | 1017.3 hPa | 0 mm | - | - | - |
| 1778006071 | 28.89° C | 71% | 1017.5 hPa | 0 mm | - | - | - |
| 1778005768 | 29.44° C | 72% | 1017.6 hPa | 0 mm | - | - | - |
| 1778005465 | 28.33° C | 72% | 1017.7 hPa | 0 mm | - | - | - |
| 1778005161 | 28.33° C | 73% | 1017.7 hPa | 0 mm | - | - | - |
| 1778004859 | 29.44° C | 71% | 1017.8 hPa | 0 mm | - | - | - |
| 1778004555 | 28.89° C | 70% | 1017.8 hPa | 0 mm | - | - | - |
| 1778004251 | 28.89° C | 71% | 1017.7 hPa | 0 mm | - | - | - |
| 1778003948 | 28.89° C | 71% | 1017.7 hPa | 0 mm | - | - | - |
| 1778003644 | 30° C | 66% | 1017.8 hPa | 0 mm | - | - | - |
| 1778003340 | 29.44° C | 68% | 1018.1 hPa | 0 mm | - | - | - |
| 1778003039 | 28.89° C | 71% | 1017.9 hPa | 0 mm | - | - | - |
| 1778002734 | 28.89° C | 74% | 1018.1 hPa | 0 mm | - | - | - |
| 1778002431 | 28.89° C | 73% | 1018.2 hPa | 0 mm | - | - | - |
| 1778002128 | 29.44° C | 71% | 1018.2 hPa | 0 mm | - | - | - |
| 1778001825 | 29.44° C | 72% | 1018.1 hPa | 0 mm | - | - | - |
| 1778001525 | 29.44° C | 73% | 1018.2 hPa | 0 mm | - | - | - |
| 1778001222 | 29.44° C | 72% | 1018.3 hPa | 0 mm | - | - | - |
| 1778000919 | 29.44° C | 71% | 1018.3 hPa | 0 mm | - | - | - |
| 1778000615 | 29.44° C | 70% | 1018.3 hPa | 0 mm | - | - | - |
* Rain latest hour (hover to see other rain measurements)
** Current wind speed in m/s (hover to see current wind gust speed)